TimeCDT,TemperatureF,Dew PointF,Humidity,Sea Level PressureIn,VisibilityMPH,Wind Direction,Wind SpeedMPH,Gust SpeedMPH,PrecipitationIn,Events,Conditions,WindDirDegrees,DateUTC
12:53 AM,66.0,55.9,70,29.55,10.0,South,26.5,39.1,N/A,,Clear,170,2012-03-18 05:53:00
1:53 AM,64.4,57.2,77,29.58,10.0,South,28.8,36.8,N/A,,Clear,170,2012-03-18 06:53:00
2:53 AM,63.0,57.9,84,29.51,9.0,South,23.0,34.5,N/A,,Clear,180,2012-03-18 07:53:00
3:53 AM,60.8,57.2,88,29.58,8.0,South,19.6,28.8,N/A,,Clear,190,2012-03-18 08:53:00
4:53 AM,59.0,55.0,87,29.51,8.0,SSW,13.8,-,N/A,,Clear,200,2012-03-18 09:53:00
5:53 AM,55.9,53.1,90,29.52,8.0,SSW,8.1,17.3,N/A,,Clear,200,2012-03-18 10:53:00
6:53 AM,54.0,51.1,90,29.54,8.0,SSW,6.9,-,N/A,,Clear,210,2012-03-18 11:53:00
7:53 AM,51.1,46.0,83,29.57,10.0,SSW,5.8,-,N/A,,Clear,200,2012-03-18 12:53:00
8:53 AM,52.0,42.1,69,29.58,10.0,WSW,6.9,-,N/A,,Clear,250,2012-03-18 13:53:00
9:53 AM,57.0,39.0,51,29.57,10.0,South,9.2,-,N/A,,Clear,180,2012-03-18 14:53:00
10:53 AM,64.9,33.1,31,29.56,10.0,South,11.5,-,N/A,,Clear,190,2012-03-18 15:53:00
11:53 AM,72.0,32.0,23,29.54,10.0,South,20.7,25.3,N/A,,Clear,170,2012-03-18 16:53:00
12:53 PM,79.0,39.0,24,29.50,10.0,SSE,25.3,32.2,N/A,,Clear,160,2012-03-18 17:53:00
1:53 PM,80.1,48.0,32,29.49,10.0,SSE,28.8,38.0,N/A,,Clear,160,2012-03-18 18:53:00
2:53 PM,81.0,46.9,30,29.46,10.0,SSE,26.5,39.1,N/A,,Clear,160,2012-03-18 19:53:00
3:53 PM,81.0,46.9,30,29.43,10.0,SSE,21.9,34.5,N/A,,Clear,160,2012-03-18 20:53:00
4:53 PM,78.1,52.0,40,29.42,9.0,South,29.9,42.6,N/A,,Clear,170,2012-03-18 21:53:00
5:53 PM,75.9,51.1,42,29.41,10.0,SSE,25.3,39.1,N/A,,Clear,160,2012-03-18 22:53:00
6:53 PM,73.9,54.0,50,29.41,10.0,SSE,24.2,39.1,N/A,,Clear,150,2012-03-18 23:53:00
7:53 PM,72.0,54.0,53,29.41,10.0,SSE,27.6,44.9,N/A,,Clear,160,2012-03-19 00:53:00
8:53 PM,68.0,57.0,68,29.45,10.0,SSE,27.6,40.3,N/A,,Scattered Clouds,150,2012-03-19 01:53:00
9:03 PM,66.2,57.2,73,29.48,10.0,SSE,26.5,36.8,N/A,,Mostly Cloudy,160,2012-03-19 02:03:00
9:18 PM,66.2,57.2,73,29.50,10.0,SSE,31.1,43.7,N/A,,Scattered Clouds,160,2012-03-19 02:18:00
9:53 PM,66.0,57.0,73,29.45,10.0,SSE,28.8,40.3,N/A,,Partly Cloudy,160,2012-03-19 02:53:00
10:53 PM,64.9,57.0,75,29.45,10.0,South,33.4,46.0,N/A,,Partly Cloudy,170,2012-03-19 03:53:00
11:53 PM,64.0,57.0,78,29.43,10.0,South,28.8,39.1,N/A,,Clear,170,2012-03-19 04:53:00